Temperature
25 25 24 23 22 22 22 21 21 20 18 14 13 13 11 11 10 10 10 10 10 10 10 9 9 9 9 9 9 9 9 9 9 9 9 9 10 10 11 12 12 12 12 12
24 25 23 21 19 19 18 18 18 17 15 14 12 11 11 10 11 11 11 11 11 10 10 10 10 9 9 9 9 8 8 8 8 8 8 9 9 10 10 11 11 12 12 12
24 24 23 20 16 17 16 16 16 15 14 13 13 12 12 12 12 12 11 11 11 11 11 10 10 10 9 9 9 9 8 8 8 8 8 8 8 9 9 10 11 11 12 12
24 23 21 16 16 15 15 15 14 14 14 14 13 13 13 13 12 12 11 11 10 10 10 10 10 10 10 9 9 9 9 9 9 8 9 9 9 9 9 9 10 10 11 11
23 22 19 15 16 15 15 15 14 14 15 14 13 13 13 13 11 11 10 10 10 9 9 9 9 9 9 9 9 9 9 9 9 9 9 9 9 9 9 9 9 10 10 11
21 20 20 15 16 15 15 15 14 14 14 13 12 13 13 11 10 10 10 9 9 9 9 9 8 8 8 8 8 8 8 8 8 8 8 8 8 8 8 8 8 9 9 10
20 20 17 15 15 16 16 16 14 13 12 12 12 12 11 10 10 9 9 9 8 8 8 8 7 7 7 7 7 7 7 7 7 7 7 7 8 8 8 8 8 8 9 9
19 18 16 15 16 15 14 13 12 12 11 11 11 10 10 10 9 9 9 8 8 8 7 7 7 6 6 7 7 7 7 7 7 7 7 8 8 8 8 8 8 8 8 8
17 17 15 15 14 13 13 12 11 11 11 10 10 10 9 9 9 8 8 8 7 7 6 6 6 6 5 6 6 6 6 6 6 6 6 7 7 7 8 8 8 9 8 8
16 17 15 14 14 13 12 11 10 10 10 10 9 9 9 9 8 8 8 7 7 6 5 5 5 5 5 5 5 5 5 5 5 5 6 6 7 7 8 9 9 9 8 8
16 16 14 14 13 12 11 10 10 10 9 9 9 9 9 8 8 8 7 7 6 5 5 4 4 4 4 4 4 4 4 5 5 5 6 6 7 7 8 8 9 8 8 8
15 14 13 13 12 11 10 10 10 9 9 9 9 8 8 8 8 7 7 6 5 4 4 4 4 4 4 4 4 4 4 4 4 5 5 6 6 7 7 8 8 8 7 7
13 12 12 11 11 10 10 10 9 9 9 9 9 8 8 8 7 6 6 5 4 4 3 4 4 4 4 4 4 4 4 4 4 4 5 5 6 7 7 7 7 7 7 7
12 11 11 10 10 10 9 9 9 9 9 9 8 8 7 7 6 5 5 4 3 3 3 3 4 4 4 4 4 4 4 4 4 4 4 5 6 7 8 8 7 7 6 6
11 11 10 10 10 9 9 9 9 9 8 8 8 7 7 6 5 4 3 3 3 3 3 3 3 4 4 4 3 4 4 4 4 4 5 5 6 6 7 8 8 7 7 6
10 10 10 10 9 9 9 8 8 8 8 7 7 6 5 4 4 3 3 3 3 3 3 3 3 3 4 4 3 3 4 4 4 4 5 5 5 6 7 7 7 7 7 6
10 10 10 9 9 8 8 8 7 7 7 6 6 5 4 3 3 3 3 3 3 3 3 4 4 3 3 3 3 3 4 4 4 4 5 5 6 6 7 7 7 7 6 6
10 9 9 8 8 7 7 7 7 6 6 5 4 3 3 2 3 3 3 3 3 3 4 4 4 3 3 3 4 4 4 4 4 5 5 5 6 7 7 7 7 6 6 6
9 9 8 8 7 7 6 6 6 5 5 4 3 2 2 3 3 3 3 3 3 4 4 4 4 4 4 4 4 4 4 4 4 5 5 5 6 7 7 7 6 6 6 6
9 8 8 7 7 6 6 5 5 4 4 3 2 2 3 3 3 3 3 4 4 4 4 4 4 4 4 4 4 4 4 5 5 5 6 6 7 7 7 6 6 6 6 7
8 8 7 7 6 6 5 5 4 4 3 3 3 3 3 3 3 4 4 4 4 5 5 5 5 5 5 5 5 5 5 5 6 6 6 7 7 6 6 6 6 6 7 7
8 7 6 6 6 5 5 5 4 4 3 3 3 3 3 3 4 4 4 5 5 5 6 5 5 5 5 5 5 5 6 6 6 7 7 7 6 6 7 6 7 7 7 8
7 6 6 5 5 5 5 5 4 3 3 3 3 3 3 3 4 4 4 5 6 6 6 6 6 6 6 5 6 6 6 6 6 7 7 7 7 7 7 7 7 8 8 9
6 6 5 5 5 5 5 5 4 3 3 3 3 3 3 4 4 5 5 6 6 7 7 7 7 6 6 6 6 6 6 6 7 7 7 7 7 8 8 8 8 9 9 9
6 5 5 5 5 5 4 4 4 3 3 3 3 3 3 4 4 5 6 7 7 7 7 7 7 7 7 7 7 7 7 7 7 7 8 8 8 9 9 9 10 10 10 10
6 5 5 4 5 4 5 4 4 3 3 3 3 3 4 4 5 5 6 7 7 8 8 8 8 7 7 7 8 8 8 8 8 8 9 9 9 10 10 10 11 11 11 11
6 6 5 5 5 5 5 4 3 3 3 3 3 3 4 4 5 5 6 7 7 8 8 9 9 9 8 9 9 9 9 9 9 10 10 10 10 11 11 11 12 12 12 12
Wind_Speed
10 9 5 4 6 7 6 8 9 8 5 7 10 12 13 15 16 18 17 16 15 14 13 13 12 11 11 12 11 11 12 12 12 13 14 15 16 16 16 15 16 15 15 13
10 4 1 6 9 6 5 6 6 4 2 7 11 11 14 16 18 20 19 19 18 18 17 17 16 15 15 15 14 13 13 13 12 12 12 13 14 16 16 16 15 15 15 14
9 2 8 2 9 9 5 4 6 5 7 13 15 16 17 20 22 21 21 22 23 23 22 21 21 20 19 18 17 16 16 16 15 14 14 13 13 14 14 14 14 15 15 15
9 10 8 7 6 7 6 4 2 4 11 16 19 21 22 22 19 21 24 26 25 24 24 24 24 23 22 22 21 19 19 18 17 17 16 15 14 13 12 12 12 12 14 15
7 10 4 5 6 9 10 10 6 10 20 22 23 25 22 18 22 25 27 26 26 26 27 26 25 24 24 23 22 21 21 20 19 18 18 17 16 15 12 11 11 11 11 13
6 9 5 5 9 11 9 8 2 18 23 25 26 24 22 24 26 27 27 26 26 27 27 26 25 24 24 24 24 23 22 21 20 19 18 18 17 16 14 11 11 11 10 10
7 7 3 6 11 13 11 13 20 23 24 25 25 24 27 30 29 28 28 28 27 27 25 24 24 24 25 24 24 23 22 21 20 19 19 19 17 16 15 13 12 11 9 8
7 6 2 8 11 10 15 20 22 24 24 25 27 29 29 30 30 29 29 28 28 25 24 23 23 24 24 24 23 22 21 21 20 19 18 17 16 15 14 13 12 11 9 7
5 4 3 9 13 15 17 21 23 22 25 27 29 30 31 30 29 29 28 27 25 25 25 23 21 21 24 24 23 22 21 20 19 19 17 17 16 15 14 13 12 10 8 6
5 4 9 15 15 16 19 22 23 24 26 28 30 31 31 30 28 29 28 26 25 25 25 24 23 23 23 23 22 21 21 20 17 17 17 17 14 14 14 13 12 9 8 6
8 9 14 13 18 21 21 22 24 25 26 28 29 30 31 29 29 28 27 25 24 23 23 25 24 23 23 22 21 21 20 18 16 16 16 15 14 13 14 13 9 7 7 6
7 12 16 21 21 22 22 23 25 27 28 27 28 30 30 29 28 27 27 26 25 25 25 25 25 24 22 21 21 20 18 16 14 12 12 13 13 13 13 12 7 7 4 5
12 17 18 21 22 22 21 25 27 27 28 29 27 28 30 29 27 28 27 27 26 25 25 25 24 23 22 20 19 18 17 15 13 11 12 12 12 12 11 11 10 10 9 8
14 15 19 21 22 23 24 26 26 27 27 28 28 29 29 29 28 28 28 26 26 26 25 24 23 22 21 18 17 17 16 15 13 12 12 12 12 12 11 11 10 9 9 11
14 16 19 21 22 24 25 26 27 27 28 29 28 28 29 29 29 29 27 26 25 25 25 23 21 20 18 17 16 14 12 10 10 11 12 12 12 12 11 11 8 6 6 7
17 18 19 21 23 25 26 27 27 28 29 29 29 29 29 29 28 28 27 25 25 25 24 21 19 17 16 15 12 9 8 10 11 10 10 11 11 12 11 9 8 6 6 6
17 19 20 22 24 26 26 26 27 28 29 29 30 30 29 29 28 27 27 25 25 24 22 18 16 14 13 11 8 6 5 7 11 10 9 9 10 11 10 8 7 6 6 8
16 18 20 22 23 25 26 27 27 28 28 28 28 28 28 28 28 28 28 27 25 22 18 13 11 12 11 8 5 3 3 5 7 8 8 8 9 9 8 7 6 6 5 8
16 18 20 21 22 23 24 25 26 26 26 25 26 27 27 27 27 27 27 25 23 19 15 11 10 10 8 4 4 1 3 4 5 6 7 8 8 7 6 6 5 5 6 9
16 18 20 21 22 22 23 23 24 24 24 24 25 26 27 27 27 27 26 22 16 15 15 11 9 6 4 2 2 1 3 4 5 6 6 7 6 5 5 5 5 6 7 11
16 18 19 20 21 22 21 22 22 23 24 24 24 25 26 27 27 25 22 19 18 18 15 9 4 3 2 2 2 1 2 4 4 5 5 5 4 4 4 5 6 7 9 11
15 16 18 19 20 21 20 20 21 22 23 24 25 25 25 25 25 24 22 17 18 20 13 6 2 2 2 3 1 1 2 2 2 3 3 3 3 4 4 5 6 8 10 12
13 14 16 17 18 19 20 20 21 21 22 24 23 23 23 22 19 19 20 18 18 20 12 6 4 1 2 2 1 1 1 1 1 2 2 2 3 4 4 6 7 9 11 13
13 13 14 15 16 17 18 20 20 19 21 21 21 22 20 18 18 17 16 20 22 20 11 9 7 2 2 1 1 1 0 0 1 2 2 3 3 5 6 8 9 10 12 14
12 12 13 14 14 14 16 18 19 19 20 19 22 23 19 15 16 17 18 20 22 18 13 11 9 6 3 2 1 0 0 1 1 1 2 3 5 7 8 9 10 12 12 12
10 10 10 11 11 12 13 14 14 16 16 18 19 18 18 17 18 16 16 19 22 19 16 13 12 10 7 6 5 4 4 4 3 3 4 5 7 9 9 10 12 11 11 11
9 8 8 9 10 11 12 13 14 15 15 17 18 17 18 17 17 17 18 16 15 15 14 14 13 12 11 10 9 8 6 6 5 5 6 7 8 9 10 11 10 10 10 10
Wind_Direction
280 291 294 333 352 348 332 331 314 340 9 21 353 333 320 313 311 310 310 311 309 306 304 302 302 302 301 300 300 302 303 303 303 308 312 314 316 316 309 294 274 259 249 244
275 270 186 76 31 22 24 4 349 338 36 357 324 305 297 298 302 303 305 306 305 302 300 300 300 299 296 292 289 285 283 282 281 284 290 296 302 307 306 299 285 267 250 243
290 277 235 121 24 10 12 357 345 342 330 320 312 309 309 309 305 306 310 311 310 307 305 304 302 300 295 292 290 287 283 281 277 272 270 274 281 289 295 298 293 276 255 242
295 290 278 83 49 15 337 286 271 305 315 317 313 313 310 303 310 316 315 312 309 306 304 301 300 298 296 293 291 288 285 283 282 276 270 267 268 274 282 293 296 288 268 249
310 305 119 113 23 353 317 291 248 304 321 321 319 312 306 320 325 315 310 308 306 304 302 301 299 296 294 292 289 287 285 284 283 280 275 271 269 270 275 284 292 293 284 265
328 310 320 63 4 332 297 276 334 324 320 320 318 313 315 322 315 310 309 307 304 303 301 299 298 297 294 291 288 284 283 282 281 280 276 272 270 270 271 276 282 288 286 277
329 313 73 23 340 326 309 320 326 318 317 314 312 307 308 312 312 311 308 306 305 304 302 300 299 296 291 288 285 285 284 281 277 276 274 268 264 262 262 265 276 282 280 274
330 322 32 2 335 330 312 312 313 314 313 311 308 307 309 310 310 309 308 307 307 306 303 302 299 296 291 287 286 285 282 278 274 271 270 267 258 254 254 259 265 270 267 262
335 330 342 328 314 310 313 313 314 313 311 310 309 309 310 310 309 308 308 307 307 306 303 301 298 295 291 289 287 285 280 275 272 269 264 261 260 253 249 246 253 263 261 251
294 288 311 311 309 317 320 315 312 310 310 310 308 309 310 309 309 308 308 308 307 305 302 299 297 293 288 288 286 282 277 273 269 265 260 253 249 247 245 245 245 252 255 246
286 304 311 309 322 324 318 313 311 310 310 309 309 309 309 309 308 309 308 307 306 303 300 298 296 292 289 287 284 280 275 270 265 260 256 254 248 243 244 244 247 255 265 249
313 322 313 313 320 318 315 315 314 314 312 312 310 309 309 308 308 308 307 307 306 303 301 299 297 293 289 286 283 278 273 265 257 252 250 247 244 236 221 232 186 191 232 260
301 311 310 310 312 316 316 315 315 313 312 312 311 310 310 308 308 307 308 307 306 303 301 298 296 295 293 290 286 278 269 260 251 243 243 243 240 233 219 204 197 198 206 217
308 312 311 313 315 316 317 316 315 313 312 312 313 312 311 310 309 309 309 307 305 302 300 298 297 296 296 295 289 278 266 254 244 236 234 235 235 229 221 207 195 201 205 205
316 316 311 313 315 318 320 318 317 316 316 316 316 315 314 314 312 311 309 307 305 303 302 302 301 300 302 298 290 281 266 247 234 229 227 228 228 224 219 211 203 196 180 173
315 314 316 319 320 321 322 322 320 319 319 319 319 319 318 316 312 310 308 308 308 307 306 303 302 302 303 301 294 282 259 234 224 223 223 221 218 215 210 200 195 196 181 162
317 321 324 325 324 323 323 322 320 320 320 321 322 322 320 316 313 311 311 311 309 306 304 302 303 306 306 304 296 279 247 217 210 217 221 217 210 207 201 192 189 190 178 165
317 319 322 323 323 322 322 323 322 322 322 323 324 323 319 316 314 313 314 313 312 310 309 306 308 312 309 310 304 272 229 208 203 207 207 207 205 199 191 186 188 187 174 168
320 321 323 323 324 322 322 322 323 323 324 326 325 320 317 316 316 317 317 318 318 319 320 316 310 305 304 320 320 250 204 189 187 192 192 188 199 194 189 188 188 190 185 172
319 322 323 324 325 325 324 324 323 323 326 327 322 320 320 322 323 323 324 323 324 325 323 320 317 317 319 9 317 193 168 170 177 180 181 185 189 190 190 196 199 192 185 176
323 325 326 326 325 326 327 327 325 326 327 326 325 324 324 325 327 328 329 331 333 335 334 324 318 333 4 25 274 164 151 167 176 174 173 177 188 200 211 208 196 191 181 179
324 325 325 325 326 327 328 327 329 330 329 329 329 329 330 331 332 332 332 335 335 336 340 341 338 9 0 311 335 81 109 141 160 163 168 178 201 222 208 188 182 178 177 179
323 324 324 325 326 324 325 331 334 333 331 331 331 334 335 333 333 335 337 337 340 341 351 3 7 14 288 276 338 36 97 121 144 155 165 190 202 188 170 165 168 169 167 168
321 324 323 324 324 325 330 334 334 333 332 333 336 339 339 336 337 339 336 334 343 348 6 15 19 30 257 292 313 302 282 168 153 147 163 178 169 157 154 155 155 154 156 161
321 322 323 326 327 331 331 332 334 335 338 339 341 342 343 341 339 339 340 344 350 356 11 21 21 17 32 40 40 4 32 74 84 119 143 139 135 135 137 138 141 143 148 153
320 320 324 321 325 327 332 335 335 337 339 341 342 342 344 345 344 346 347 350 357 2 10 16 21 23 32 40 46 55 76 101 117 122 114 118 119 118 121 126 130 132 136 140
315 321 322 328 337 339 337 336 336 337 341 344 339 341 345 347 348 349 351 355 0 4 8 11 14 18 24 29 37 47 61 77 94 104 109 111 112 114 120 121 121 124 129 133
Height
1502 1500 1503 1508 1512 1511 1511 1512 1511 1514 1521 1531 1535 1536 1534 1530 1526 1521 1517 1513 1509 1504 1500 1496 1492 1489 1485 1482 1478 1474 1470 1467 1464 1462 1459 1458 1456 1454 1452 1451 1449 1448 1448 1448
1505 1501 1505 1516 1522 1521 1523 1523 1522 1525 1531 1536 1536 1534 1530 1526 1521 1516 1511 1507 1503 1499 1495 1491 1487 1483 1479 1476 1472 1468 1464 1460 1456 1454 1452 1450 1449 1447 1446 1444 1442 1441 1440 1441
1504 1500 1507 1520 1534 1530 1531 1532 1529 1531 1535 1534 1530 1527 1523 1519 1514 1509 1505 1502 1497 1493 1489 1485 1481 1477 1473 1469 1465 1462 1458 1455 1451 1449 1446 1444 1443 1442 1440 1438 1435 1433 1432 1433
1504 1505 1515 1539 1538 1537 1536 1534 1534 1534 1531 1528 1525 1521 1518 1512 1507 1503 1500 1496 1490 1486 1481 1477 1472 1468 1464 1460 1457 1454 1451 1447 1445 1443 1441 1439 1438 1436 1434 1431 1428 1426 1424 1425
1509 1508 1523 1538 1537 1538 1536 1530 1530 1530 1526 1523 1519 1514 1508 1505 1503 1500 1494 1488 1483 1478 1472 1467 1463 1459 1454 1450 1447 1444 1441 1439 1437 1435 1433 1432 1431 1429 1427 1425 1422 1420 1418 1417
1514 1520 1520 1539 1538 1537 1534 1526 1528 1527 1522 1519 1514 1505 1499 1500 1497 1492 1486 1480 1474 1468 1463 1458 1453 1449 1444 1440 1437 1434 1431 1429 1427 1426 1424 1423 1422 1421 1420 1419 1417 1414 1411 1410
1522 1519 1527 1539 1537 1533 1529 1525 1527 1524 1520 1516 1510 1505 1498 1492 1488 1483 1477 1471 1465 1459 1453 1448 1444 1439 1434 1430 1426 1424 1421 1419 1417 1416 1415 1413 1413 1413 1413 1412 1411 1408 1406 1404
1524 1525 1535 1538 1535 1534 1533 1529 1525 1521 1516 1510 1504 1498 1492 1486 1480 1473 1467 1461 1455 1448 1442 1438 1434 1429 1423 1419 1416 1413 1410 1408 1406 1405 1405 1404 1404 1404 1404 1404 1404 1402 1400 1399
1534 1535 1538 1537 1536 1534 1531 1526 1522 1517 1511 1505 1498 1490 1483 1477 1470 1464 1457 1451 1445 1439 1432 1427 1423 1418 1412 1407 1405 1402 1399 1397 1396 1395 1394 1394 1395 1396 1397 1397 1397 1396 1395 1394
1536 1533 1536 1535 1532 1530 1527 1523 1517 1512 1506 1499 1491 1483 1475 1468 1460 1454 1447 1441 1435 1428 1421 1415 1410 1406 1400 1396 1393 1390 1387 1385 1385 1384 1384 1385 1386 1387 1389 1390 1390 1390 1390 1389
1535 1534 1534 1530 1529 1526 1522 1517 1512 1506 1500 1493 1485 1476 1468 1460 1452 1444 1437 1430 1424 1417 1409 1402 1397 1392 1388 1384 1380 1377 1375 1374 1374 1374 1374 1375 1377 1378 1380 1383 1384 1385 1385 1385
1536 1536 1534 1528 1525 1521 1516 1511 1505 1498 1491 1485 1479 1469 1461 1452 1444 1436 1427 1420 1412 1405 1398 1391 1385 1379 1375 1371 1368 1365 1362 1362 1363 1364 1365 1367 1368 1370 1372 1376 1378 1379 1380 1380
1538 1535 1531 1526 1521 1517 1512 1505 1499 1492 1484 1476 1469 1462 1453 1444 1435 1426 1418 1409 1401 1393 1385 1378 1372 1367 1362 1359 1355 1352 1351 1351 1352 1354 1356 1358 1361 1363 1366 1369 1371 1373 1374 1375
1535 1531 1527 1522 1517 1512 1506 1500 1492 1485 1478 1470 1462 1453 1445 1435 1426 1417 1408 1398 1389 1381 1373 1366 1360 1355 1351 1347 1344 1341 1340 1341 1342 1345 1348 1351 1354 1357 1360 1363 1366 1367 1369 1371
1531 1528 1523 1517 1512 1506 1501 1493 1485 1478 1470 1462 1454 1446 1437 1427 1416 1406 1397 1387 1378 1370 1362 1355 1350 1345 1341 1337 1334 1331 1331 1332 1334 1337 1341 1344 1348 1351 1355 1358 1361 1363 1365 1367
1527 1523 1519 1514 1508 1501 1495 1487 1480 1471 1463 1455 1446 1438 1429 1419 1408 1397 1386 1377 1367 1358 1351 1345 1340 1336 1332 1329 1326 1324 1324 1326 1328 1332 1335 1339 1343 1347 1350 1354 1357 1359 1362 1364
1523 1518 1514 1509 1503 1497 1490 1484 1476 1467 1458 1449 1440 1431 1420 1409 1398 1387 1376 1367 1358 1349 1342 1336 1332 1329 1326 1323 1321 1319 1320 1322 1325 1328 1332 1335 1339 1343 1347 1350 1353 1356 1358 1361
1521 1516 1512 1507 1500 1493 1485 1478 1470 1462 1453 1444 1435 1424 1413 1402 1390 1378 1367 1357 1348 1340 1334 1329 1326 1323 1321 1319 1318 1317 1318 1320 1323 1326 1329 1333 1337 1341 1344 1347 1350 1353 1355 1358
1517 1513 1508 1503 1497 1490 1482 1474 1466 1457 1449 1440 1430 1419 1408 1397 1385 1373 1361 1350 1341 1333 1328 1324 1321 1319 1318 1317 1317 1317 1318 1320 1323 1326 1329 1332 1336 1339 1342 1345 1347 1350 1353 1357
1513 1509 1504 1498 1492 1486 1479 1471 1462 1454 1445 1436 1425 1415 1404 1393 1381 1369 1357 1347 1339 1331 1325 1321 1319 1318 1318 1318 1318 1319 1320 1322 1324 1327 1329 1332 1335 1338 1340 1343 1345 1348 1351 1356
1510 1505 1500 1494 1488 1482 1475 1468 1460 1451 1442 1433 1424 1413 1402 1390 1379 1367 1355 1345 1337 1330 1324 1321 1319 1320 1320 1320 1320 1322 1323 1324 1326 1328 1331 1333 1335 1336 1338 1340 1343 1346 1350 1356
1506 1501 1496 1491 1484 1478 1472 1465 1458 1449 1439 1431 1422 1412 1401 1389 1378 1367 1357 1348 1339 1332 1326 1323 1322 1322 1322 1323 1324 1324 1325 1326 1328 1329 1331 1332 1333 1335 1336 1339 1342 1345 1350 1356
1503 1498 1493 1487 1482 1475 1469 1463 1456 1447 1438 1430 1421 1412 1401 1391 1380 1370 1359 1350 1343 1337 1331 1328 1326 1325 1325 1326 1327 1327 1328 1329 1330 1331 1331 1332 1333 1335 1337 1339 1343 1347 1352 1357
1499 1494 1490 1485 1479 1474 1468 1461 1454 1446 1438 1430 1422 1413 1403 1392 1381 1373 1365 1356 1349 1343 1338 1334 1331 1330 1329 1329 1330 1330 1331 1331 1332 1333 1333 1334 1335 1337 1340 1342 1346 1350 1355 1360
1495 1491 1487 1482 1477 1472 1467 1460 1453 1445 1437 1430 1422 1413 1405 1396 1387 1378 1370 1363 1357 1350 1345 1342 1338 1336 1334 1333 1333 1333 1334 1334 1335 1335 1336 1338 1339 1342 1344 1347 1351 1355 1360 1364
1492 1488 1484 1480 1477 1472 1466 1460 1453 1446 1439 1431 1422 1414 1406 1398 1390 1382 1375 1369 1364 1358 1353 1349 1346 1343 1341 1340 1339 1338 1338 1339 1340 1340 1342 1343 1345 1348 1351 1354 1357 1361 1364 1368
1489 1486 1482 1479 1475 1471 1465 1460 1454 1448 1441 1434 1425 1417 1410 1402 1394 1387 1381 1376 1370 1366 1361 1358 1354 1352 1350 1348 1347 1346 1346 1346 1347 1348 1349 1351 1353 1355 1358 1360 1363 1366 1369 1372